EW8182 Weather Reports


Display with metric or nautical units.
time (UTC)temp
F
wind
direction
speed
MPH
gust
MPH
rain 1hr
in
rain 24hr
in
rain mn
in
humidity
%
barometer
mb
20190627085220 69 200 0.0 0.0 0.00 0.00 0.00 92 1020.2
20190627084720 69 200 0.0 0.0 0.00 0.00 0.00 93 1020.2
20190627084221 69 200 0.0 0.0 0.00 0.00 0.00 92 1020.1
20190627083719 70 200 0.0 0.0 0.00 0.00 0.00 92 1019.9
20190627083220 70 200 0.0 0.0 0.00 0.00 0.00 91 1019.9
20190627082720 70 200 0.0 0.0 0.00 0.00 0.00 92 1019.8
20190627082220 70 200 0.0 0.0 0.00 0.00 0.00 92 1019.8
20190627081720 70 200 0.0 0.0 0.00 0.00 0.00 92 1019.7
20190627081219 70 200 0.0 0.0 0.00 0.00 0.00 92 1019.6
20190627080718 70 200 0.0 0.0 0.00 0.00 0.00 92 1019.6
20190627080218 70 200 0.0 0.0 0.00 0.00 0.00 91 1019.6
20190627075718 70 200 0.0 0.0 0.00 0.00 0.00 91 1019.6
20190627075218 70 200 0.0 0.0 0.00 0.00 0.00 91 1019.6
20190627074717 70 200 0.0 0.0 0.00 0.00 0.00 90 1019.5
20190627074218 71 232 0.0 0.0 0.00 0.00 0.00 90 1019.5
20190627073718 71 232 0.0 0.0 0.00 0.00 0.00 90 1019.5
20190627073218 71 232 0.0 0.0 0.00 0.00 0.00 89 1019.5
20190627072718 71 232 0.0 0.0 0.00 0.00 0.00 89 1019.5
20190627072218 71 232 0.0 0.0 0.00 0.00 0.00 88 1019.5
20190627071715 71 232 0.0 0.0 0.00 0.00 0.00 88 1019.5
20190627071215 71 232 0.0 0.0 0.00 0.00 0.00 89 1019.6
20190627070716 71 232 0.0 0.0 0.00 0.00 0.00 89 1019.4
20190627070216 71 232 0.0 0.0 0.00 0.00 0.00 88 1019.5
20190627065715 71 232 0.0 0.0 0.00 0.00 0.00 88 1019.6
20190627065215 71 232 0.0 0.0 0.00 0.00 0.00 89 1019.6
20190627064716 71 232 0.0 0.0 0.00 0.00 0.00 89 1019.7
20190627064216 71 232 0.0 0.0 0.00 0.00 0.00 88 1019.7
20190627063716 71 232 0.0 0.0 0.00 0.00 0.00 88 1019.7
20190627063216 71 232 0.0 0.0 0.00 0.00 0.00 88 1019.7
20190627062713 71 232 0.0 0.0 0.00 0.00 0.00 88 1019.8
20190627062213 72 232 0.0 0.0 0.00 0.00 0.00 88 1019.8
20190627061714 72 232 0.0 0.0 0.00 0.00 0.00 88 1019.8
20190627061211 72 232 0.0 0.0 0.00 0.00 0.00 87 1019.8
20190627060712 73 232 0.0 0.0 0.00 0.00 0.00 85 1019.7
20190627060210 73 232 0.0 0.0 0.00 0.00 0.00 84 1019.8
20190627055709 73 232 0.0 0.0 0.00 0.00 0.00 84 1019.7
20190627055209 73 232 0.0 0.0 0.00 0.00 0.00 83 1019.7
20190627054709 73 232 0.0 0.0 0.00 0.00 0.00 83 1019.6
20190627054209 73 232 0.0 0.0 0.00 0.00 0.00 84 1019.7
20190627053710 73 232 0.0 0.0 0.00 0.00 0.00 84 1019.8
20190627053210 73 232 0.0 0.0 0.00 0.00 0.00 84 1019.7
20190627052709 73 232 0.0 0.0 0.00 0.00 0.00 84 1019.7
20190627052209 73 232 0.0 0.0 0.00 0.00 0.00 84 1019.8
20190627051709 73 232 0.0 0.0 0.00 0.00 0.00 83 1019.8
20190627051209 73 232 0.0 0.0 0.00 0.00 0.00 84 1019.8
20190627050710 73 232 0.0 0.0 0.00 0.00 0.00 83 1019.7
20190627050209 73 232 0.0 0.0 0.00 0.00 0.00 83 1019.7
20190627045708 73 232 0.0 0.0 0.00 0.00 0.00 83 1019.6
20190627045210 73 232 0.0 0.0 0.00 0.00 0.00 83 1019.5
20190627044709 73 232 0.0 0.0 0.00 0.00 0.00 83 1019.5
20190627044209 73 232 0.0 0.0 0.00 0.00 0.00 82 1019.5
20190627043709 74 232 0.0 0.0 0.00 0.00 0.00 82 1019.5
20190627043209 74 232 0.0 0.0 0.00 0.00 0.00 82 1019.4
20190627042710 74 232 0.0 0.0 0.00 0.00 0.00 81 1019.4
20190627042209 74 232 0.0 0.0 0.00 0.00 0.00 81 1019.4
20190627041709 74 232 0.0 0.0 0.00 0.00 0.00 80 1019.4
20190627041209 74 232 0.0 0.0 0.00 0.00 0.00 79 1019.3
20190627040707 74 232 0.0 0.0 0.00 0.00 0.00 78 1019.4
20190627040207 74 232 0.0 0.0 0.00 0.00 0.00 78 1019.4
20190627035707 74 232 0.0 0.0 0.00 0.00 0.00 78 1019.4
20190627035207 75 232 0.0 0.0 0.00 0.00 0.00 78 1019.4
20190627034707 75 232 0.0 0.0 0.00 0.00 0.00 78 1019.4
20190627034206 75 232 0.0 0.0 0.00 0.00 0.00 77 1019.4
20190627033707 76 232 0.0 0.0 0.00 0.00 0.00 76 1019.3
20190627033207 76 232 0.0 0.0 0.00 0.00 0.00 76 1019.3
20190627032707 76 232 0.0 0.0 0.00 0.00 0.00 76 1019.3
20190627032207 76 232 0.0 0.0 0.00 0.00 0.00 76 1019.3
20190627031704 76 232 0.0 0.0 0.00 0.00 0.00 76 1019.2
20190627031206 76 232 0.0 0.0 0.00 0.00 0.00 76 1019.3
20190627030705 76 232 0.0 0.0 0.00 0.00 0.00 76 1019.4
20190627030205 75 232 0.0 0.0 0.00 0.00 0.00 78 1019.3
20190627025705 75 232 0.0 0.0 0.00 0.00 0.00 79 1019.2
20190627025205 75 232 0.0 0.0 0.00 0.00 0.00 80 1019.2
20190627024705 75 232 0.0 0.0 0.00 0.00 0.00 81 1019.1
20190627024205 75 232 0.0 0.0 0.00 0.00 0.00 81 1019.1
20190627023704 75 232 0.0 0.0 0.00 0.00 0.00 81 1019.0
20190627023205 76 232 0.0 0.0 0.00 0.00 0.00 80 1019.1
20190627022655 76 232 0.0 0.0 0.00 0.00 0.00 79 1019.1
20190627022154 76 232 0.0 0.0 0.00 0.00 0.00 79 1018.9
20190627021654 76 232 0.0 0.0 0.00 0.00 0.00 76 1019.0
20190627021155 77 232 0.0 0.0 0.00 0.00 0.00 77 1018.9
20190627020655 77 232 0.0 0.0 0.00 0.00 0.00 75 1018.8
20190627020154 77 232 0.0 0.0 0.00 0.00 0.00 76 1018.8
20190627015654 78 232 0.0 0.0 0.00 0.00 0.00 75 1018.7
20190627015155 78 232 0.0 0.0 0.00 0.00 0.00 75 1018.7
20190627014652 78 232 0.0 0.0 0.00 0.00 0.00 72 1018.7
20190627014153 78 232 0.0 1.0 0.00 0.00 0.00 72 1018.7
20190627013653 79 232 0.0 1.0 0.00 0.00 0.00 71 1018.6
20190627013152 79 232 1.0 2.0 0.00 0.00 0.00 70 1018.6
20190627012653 80 232 1.0 3.0 0.00 0.00 0.00 69 1018.6
20190627012153 80 232 2.0 4.0 0.00 0.00 0.00 69 1018.5
20190627011653 80 232 1.0 4.0 0.00 0.00 0.00 69 1018.5
20190627011153 80 232 1.0 2.0 0.00 0.00 0.00 69 1018.4
20190627010653 80 232 1.0 2.0 0.00 0.00 0.00 69 1018.3
20190627010153 80 232 1.0 2.0 0.00 0.00 0.00 69 1018.3
20190627005653 80 232 1.0 2.0 0.00 0.00 0.00 71 1018.2
20190627005153 81 232 2.0 3.0 0.00 0.00 0.00 71 1018.1
20190627004658 81 232 2.0 3.0 0.00 0.00 0.00 70 1018.2
20190627004153 81 232 1.0 2.0 0.00 0.00 0.00 70 1018.0
20190627003652 82 232 0.0 1.0 0.00 0.00 0.00 70 1018.0
20190627003153 82 232 1.0 2.0 0.00 0.00 0.00 69 1017.9
20190627002652 83 232 1.0 3.0 0.00 0.00 0.00 70 1017.9
20190627002153 83 232 0.0 3.0 0.00 0.00 0.00 64 1017.8
20190627001653 84 241 0.0 1.0 0.00 0.00 0.00 62 1017.7
20190627001158 85 241 1.0 2.0 0.00 0.00 0.00 57 1017.8
20190627001154 84 241 0.0 2.0 0.00 0.00 0.00 58 1017.8
20190627000658 85 241 1.0 2.0 0.00 0.00 0.00 57 1017.8
20190627000152 85 241 1.0 3.0 0.00 0.00 0.00 58 1017.7
20190626235653 85 241 1.0 3.0 0.00 0.00 0.00 56 1017.7
20190626235152 85 241 2.0 5.0 0.00 0.00 0.00 57 1017.7
20190626234653 85 241 2.0 5.0 0.00 0.00 0.00 55 1017.6
20190626234152 86 240 3.0 5.0 0.00 0.00 0.00 56 1017.6
20190626233650 86 240 4.0 8.0 0.00 0.00 0.00 54 1017.6
20190626233150 86 237 4.0 8.0 0.00 0.00 0.00 54 1017.6
20190626232650 86 240 3.0 9.0 0.00 0.00 0.00 54 1017.7
20190626232150 86 238 4.0 9.0 0.00 0.00 0.00 55 1017.7
20190626231651 86 240 3.0 8.0 0.00 0.00 0.00 55 1017.7
20190626231151 86 240 3.0 5.0 0.00 0.00 0.00 54 1017.8
20190626230650 87 237 4.0 9.0 0.00 0.00 0.00 52 1017.8
20190626230151 87 236 4.0 9.0 0.00 0.00 0.00 52 1017.6
20190626225650 87 223 3.0 9.0 0.00 0.00 0.00 53 1017.7
20190626225149 87 241 2.0 8.0 0.00 0.00 0.00 54 1017.7
20190626224648 88 232 3.0 9.0 0.00 0.00 0.00 52 1017.7
20190626224148 88 230 5.0 9.0 0.00 0.00 0.00 53 1017.7
20190626223648 88 234 6.0 11.0 0.00 0.00 0.00 51 1017.6
20190626223152 89 228 3.0 10.0 0.00 0.00 0.00 49 1017.5
20190626223148 88 226 6.0 11.0 0.00 0.00 0.00 50 1017.6
20190626222149 89 221 1.0 7.0 0.00 0.00 0.00 51 1017.6
20190626221648 89 241 3.0 8.0 0.00 0.00 0.00 51 1017.6
20190626221150 89 233 4.0 9.0 0.00 0.00 0.00 52 1017.7
20190626220648 89 238 5.0 11.0 0.00 0.00 0.00 53 1017.8
20190626220148 89 227 5.0 11.0 0.00 0.00 0.00 51 1017.8
20190626215646 89 232 4.0 11.0 0.00 0.00 0.00 49 1017.8
20190626215146 89 238 4.0 10.0 0.00 0.00 0.00 50 1017.9
20190626214646 89 241 4.0 9.0 0.00 0.00 0.00 50 1017.9
20190626214146 89 234 3.0 8.0 0.00 0.00 0.00 48 1018.0
20190626213650 89 225 2.0 7.0 0.00 0.00 0.00 49 1018.0
20190626213645 89 236 3.0 8.0 0.00 0.00 0.00 49 1018.0
20190626213150 89 225 2.0 7.0 0.00 0.00 0.00 49 1018.0
20190626212646 89 229 3.0 8.0 0.00 0.00 0.00 51 1018.1
20190626212148 88 240 5.0 10.0 0.00 0.00 0.00 51 1018.1
20190626211646 88 184 7.0 12.0 0.00 0.00 0.00 49 1018.0
20190626211146 89 222 7.0 12.0 0.00 0.00 0.00 50 1018.0
20190626210645 89 235 5.0 11.0 0.00 0.00 0.00 51 1018.1
20190626210144 89 220 4.0 9.0 0.00 0.00 0.00 52 1018.2
20190626205644 89 211 3.0 9.0 0.00 0.00 0.00 51 1018.1
20190626205143 89 206 3.0 9.0 0.00 0.00 0.00 56 1018.2
20190626204644 89 226 3.0 9.0 0.00 0.00 0.00 54 1018.1
20190626204144 89 236 4.0 9.0 0.00 0.00 0.00 52 1018.2
20190626203643 88 237 5.0 10.0 0.00 0.00 0.00 53 1018.3
20190626203143 88 233 6.0 11.0 0.00 0.00 0.00 53 1018.3
20190626202644 88 244 7.0 14.0 0.00 0.00 0.00 53 1018.3
20190626202143 88 220 7.0 14.0 0.00 0.00 0.00 54 1018.3
20190626201642 88 238 6.0 11.0 0.00 0.00 0.00 55 1018.3
20190626201142 88 227 7.0 11.0 0.00 0.00 0.00 53 1018.4
20190626200641 88 233 8.0 15.0 0.00 0.00 0.00 55 1018.4
20190626200142 87 206 8.0 15.0 0.00 0.00 0.00 57 1018.3
20190626195643 87 244 8.0 14.0 0.00 0.00 0.00 53 1018.4
20190626195141 88 222 7.0 14.0 0.00 0.00 0.00 56 1018.5
20190626194646 87 238 7.0 12.0 0.00 0.00 0.00 56 1018.5
20190626194141 87 218 7.0 13.0 0.00 0.00 0.00 57 1018.5
20190626193641 87 219 6.0 14.0 0.00 0.00 0.00 56 1018.5
20190626193201 87 238 3.0 13.0 0.00 0.00 0.00 60 1018.5
20190626193140 87 235 5.0 14.0 0.00 0.00 0.00 56 1018.4
20190626192707 87 238 3.0 13.0 0.00 0.00 0.00 60 1018.5
20190626192143 87 336 5.0 12.0 0.00 0.00 0.00 59 1018.4
20190626191638 87 200 6.0 12.0 0.00 0.00 0.00 56 1018.4
20190626191137 87 202 6.0 12.0 0.00 0.00 0.00 58 1018.4
20190626190637 87 244 7.0 12.0 0.00 0.00 0.00 57 1018.4
20190626190137 87 234 7.0 12.0 0.00 0.00 0.00 57 1018.4
20190626185637 87 214 7.0 12.0 0.00 0.00 0.00 56 1018.4
20190626185141 87 225 7.0 12.0 0.00 0.00 0.00 58 1018.4
20190626184637 86 223 7.0 12.0 0.00 0.00 0.00 57 1018.4
20190626184137 86 203 6.0 11.0 0.00 0.00 0.00 54 1018.5
20190626183635 86 238 7.0 11.0 0.00 0.00 0.00 55 1018.5
20190626183135 86 237 5.0 11.0 0.00 0.00 0.00 56 1018.5
20190626182638 87 229 3.0 9.0 0.00 0.00 0.00 56 1018.5
20190626182136 87 232 4.0 13.0 0.00 0.00 0.00 58 1018.6
20190626181635 86 236 6.0 13.0 0.00 0.00 0.00 56 1018.7
20190626181136 86 242 5.0 13.0 0.00 0.00 0.00 59 1018.7
20190626180642 86 238 4.0 13.0 0.00 0.00 0.00 54 1018.8
20190626180134 86 247 5.0 13.0 0.00 0.00 0.00 58 1018.8
20190626175635 86 232 6.0 13.0 0.00 0.00 0.00 58 1018.9
20190626175133 86 206 4.0 12.0 0.00 0.00 0.00 54 1018.9
20190626174633 86 248 3.0 10.0 0.00 0.00 0.00 61 1019.0
20190626174133 86 242 4.0 12.0 0.00 0.00 0.00 56 1019.0
20190626173639 86 244 4.0 12.0 0.00 0.00 0.00 59 1018.9
20190626173129 85 244 3.0 10.0 0.00 0.00 0.00 59 1019.0
20190626172631 85 247 5.0 11.0 0.00 0.00 0.00 57 1019.1
20190626172127 85 232 5.0 12.0 0.00 0.00 0.00 56 1019.0
20190626171629 85 242 4.0 12.0 0.00 0.00 0.00 56 1019.0
20190626171127 85 212 3.0 10.0 0.00 0.00 0.00 56 1019.1
20190626170627 85 230 4.0 10.0 0.00 0.00 0.00 54 1019.1
20190626170130 84 234 6.0 11.0 0.00 0.00 0.00 59 1019.1
20190626165627 83 192 6.0 11.0 0.00 0.00 0.00 58 1019.0
20190626165126 83 190 6.0 11.0 0.00 0.00 0.00 61 1019.0
20190626164625 83 236 6.0 11.0 0.00 0.00 0.00 60 1019.0
20190626164128 83 206 5.0 12.0 0.00 0.00 0.00 63 1019.0
20190626163625 83 229 5.0 12.0 0.00 0.00 0.00 61 1019.0
20190626163126 83 233 5.0 8.0 0.00 0.00 0.00 62 1019.1
20190626162625 82 226 4.0 8.0 0.00 0.00 0.00 64 1019.1
20190626162125 82 231 4.0 8.0 0.00 0.00 0.00 64 1019.1
20190626161625 82 209 4.0 9.0 0.00 0.00 0.00 66 1019.2
20190626161125 82 230 3.0 9.0 0.00 0.00 0.00 63 1019.1
20190626160625 83 232 3.0 8.0 0.00 0.00 0.00 63 1019.2
20190626160123 82 241 2.0 8.0 0.00 0.00 0.00 63 1019.3
20190626155627 82 234 2.0 9.0 0.00 0.00 0.00 68 1019.2
20190626155124 82 238 3.0 9.0 0.00 0.00 0.00 62 1019.2
20190626154623 82 228 2.0 9.0 0.00 0.00 0.00 66 1019.2
20190626154125 83 227 1.0 9.0 0.00 0.00 0.00 63 1019.2
20190626153634 82 229 2.0 8.0 0.00 0.00 0.00 65 1019.1
20190626153621 82 229 2.0 8.0 0.00 0.00 0.00 65 1019.1
20190626153140 82 229 2.0 8.0 0.00 0.00 0.00 65 1019.1
20190626152621 82 226 3.0 10.0 0.00 0.00 0.00 68 1019.1
20190626152120 81 214 3.0 10.0 0.00 0.00 0.00 69 1019.1
20190626151621 80 217 3.0 8.0 0.00 0.00 0.00 65 1018.9
20190626151120 80 229 4.0 10.0 0.00 0.00 0.00 65 1018.9
20190626150619 80 232 5.0 10.0 0.00 0.00 0.00 70 1018.8
20190626150122 80 223 3.0 8.0 0.00 0.00 0.00 71 1018.8
20190626145620 79 227 3.0 8.0 0.00 0.00 0.00 73 1018.7
20190626145143 78 238 5.0 9.0 0.00 0.00 0.00 71 1018.6
20190626144623 79 227 4.0 9.0 0.00 0.00 0.00 73 1018.7
20190626144619 79 210 4.0 9.0 0.00 0.00 0.00 71 1018.6
20190626144127 79 227 4.0 9.0 0.00 0.00 0.00 73 1018.7
20190626143618 79 230 3.0 8.0 0.00 0.00 0.00 71 1018.7
20190626143121 78 234 4.0 9.0 0.00 0.00 0.00 75 1018.8
20190626143117 79 240 3.0 7.0 0.00 0.00 0.00 74 1018.7
20190626142625 78 234 4.0 9.0 0.00 0.00 0.00 75 1018.8
20190626142118 78 230 4.0 9.0 0.00 0.00 0.00 72 1018.8
20190626141617 78 233 3.0 9.0 0.00 0.00 0.00 75 1018.9
20190626141117 78 242 1.0 3.0 0.00 0.00 0.00 73 1018.8
20190626140618 78 243 2.0 5.0 0.00 0.00 0.00 74 1018.9
20190626140121 78 240 2.0 6.0 0.00 0.00 0.00 74 1019.0
20190626140117 78 244 2.0 5.0 0.00 0.00 0.00 76 1019.0
20190626135621 78 240 2.0 6.0 0.00 0.00 0.00 74 1019.0
20190626135117 77 233 2.0 6.0 0.00 0.00 0.00 77 1019.1
20190626134620 77 234 3.0 5.0 0.00 0.00 0.00 75 1019.0
20190626134616 76 222 3.0 8.0 0.00 0.00 0.00 78 1018.9
20190626134121 76 222 3.0 8.0 0.00 0.00 0.00 78 1018.9
20190626133614 76 237 4.0 8.0 0.00 0.00 0.00 77 1018.9
20190626133114 76 242 4.0 10.0 0.00 0.00 0.00 79 1019.0
20190626132619 75 226 5.0 10.0 0.00 0.00 0.00 78 1018.9
20190626132615 75 257 5.0 10.0 0.00 0.00 0.00 78 1019.0
20190626132119 75 226 5.0 10.0 0.00 0.00 0.00 78 1018.9
20190626131615 75 248 4.0 9.0 0.00 0.00 0.00 79 1018.8
20190626131115 75 238 2.0 9.0 0.00 0.00 0.00 79 1018.7
20190626130633 74 223 2.0 6.0 0.00 0.00 0.00 82 1018.8
20190626130620 74 232 2.0 6.0 0.00 0.00 0.00 81 1018.8
20190626130615 74 235 2.0 6.0 0.00 0.00 0.00 80 1018.8
20190626130136 74 223 2.0 6.0 0.00 0.00 0.00 82 1018.8
20190626130118 74 232 2.0 6.0 0.00 0.00 0.00 81 1018.8
20190626125618 74 223 2.0 6.0 0.00 0.00 0.00 82 1018.8
20190626125117 73 242 3.0 11.0 0.00 0.00 0.00 82 1018.7
20190626124614 73 232 4.0 11.0 0.00 0.00 0.00 81 1018.7
20190626124116 73 238 4.0 9.0 0.00 0.00 0.00 81 1018.6
20190626123616 73 242 4.0 10.0 0.00 0.00 0.00 82 1018.5
20190626123115 72 238 4.0 10.0 0.00 0.00 0.00 84 1018.5
20190626122615 71 234 5.0 8.0 0.00 0.00 0.00 84 1018.5
20190626122114 71 236 6.0 10.0 0.00 0.00 0.00 83 1018.4
20190626121614 71 238 6.0 10.0 0.00 0.00 0.00 83 1018.4
20190626121120 71 219 5.0 7.0 0.00 0.00 0.00 85 1018.3
20190626121114 71 235 5.0 10.0 0.00 0.00 0.00 84 1018.4
20190626120619 71 219 5.0 7.0 0.00 0.00 0.00 85 1018.3
20190626120114 70 244 4.0 7.0 0.00 0.00 0.00 85 1018.3
20190626115614 70 233 4.0 7.0 0.00 0.00 0.00 86 1018.4
20190626115114 69 232 4.0 7.0 0.00 0.00 0.00 86 1018.4
20190626114614 69 234 4.0 7.0 0.00 0.00 0.00 86 1018.3
20190626114115 69 236 4.0 7.0 0.00 0.00 0.00 87 1018.4
20190626113614 68 230 4.0 6.0 0.00 0.00 0.00 87 1018.2
20190626113114 68 230 4.0 6.0 0.00 0.00 0.00 87 1018.2
20190626112614 68 223 4.0 6.0 0.00 0.00 0.00 88 1018.2
20190626112114 67 223 3.0 5.0 0.00 0.00 0.00 88 1018.2
20190626111612 67 227 4.0 5.0 0.00 0.00 0.00 88 1018.1
20190626111112 67 231 4.0 7.0 0.00 0.00 0.00 89 1018.1
20190626110613 67 230 4.0 7.0 0.00 0.00 0.00 89 1018.0
20190626110113 67 229 4.0 6.0 0.00 0.00 0.00 89 1018.0
20190626105612 66 223 3.0 5.0 0.00 0.00 0.00 89 1017.9
20190626105112 66 225 4.0 5.0 0.00 0.00 0.00 89 1017.8
20190626104612 66 205 4.0 5.0 0.00 0.00 0.00 89 1017.6
20190626104112 66 226 3.0 5.0 0.00 0.00 0.00 89 1017.7
20190626103613 66 229 3.0 5.0 0.00 0.00 0.00 89 1017.7
20190626103113 66 232 3.0 5.0 0.00 0.00 0.00 89 1017.7
20190626102612 66 248 3.0 5.0 0.00 0.00 0.00 89 1017.6
20190626102112 66 226 3.0 6.0 0.00 0.00 0.00 88 1017.5
20190626101612 66 203 3.0 6.0 0.00 0.00 0.00 88 1017.3
20190626101112 66 234 3.0 5.0 0.00 0.00 0.00 88 1017.2
20190626100611 67 233 4.0 8.0 0.00 0.00 0.00 88 1017.2
20190626100112 67 222 4.0 8.0 0.00 0.00 0.00 88 1017.1
20190626095612 67 229 5.0 8.0 0.00 0.00 0.00 87 1017.0
20190626095112 67 223 5.0 8.0 0.00 0.00 0.00 87 1016.7
20190626094613 67 211 5.0 8.0 0.00 0.00 0.00 87 1016.6
20190626094110 67 205 6.0 9.0 0.00 0.00 0.00 87 1016.8
20190626093610 67 196 5.0 9.0 0.00 0.00 0.00 87 1016.8
20190626093110 67 190 5.0 9.0 0.00 0.00 0.00 87 1016.9
20190626092610 67 217 5.0 9.0 0.00 0.00 0.00 86 1016.9
20190626092110 67 215 4.0 8.0 0.00 0.00 0.00 86 1016.7
20190626091609 67 200 4.0 8.0 0.00 0.00 0.00 86 1016.7
20190626091109 67 195 4.0 8.0 0.00 0.00 0.00 86 1016.6
20190626090610 67 211 4.0 6.0 0.00 0.00 0.00 86 1016.7
20190626090110 67 201 5.0 6.0 0.00 0.00 0.00 86 1016.6
20190626085610 67 206 5.0 7.0 0.00 0.00 0.00 86 1016.6